[[{"header":{"parameterUnit":"m.s-1","parameterCategory":1,"la1":30.2991,"la2":30.254,"lo1":-89.0895,"lo2":-89.0444,"dy":0.0017,"dx":0.0017,"nx":28,"ny":28,"refTime":"2024-04-01T21:00:00:Z","depth":0,"parameterNumber":2,"parameterNumberName":"U-component_of_WINDS"},"data":[0,0,0,0,0,0,0,0,0,0,0,0,0,0,0,0,0,0,0,0,0,0,0,0,0,0,0,0,0,0,0,0,0,0,0,0,0,0,0,0,0,0,0,0,0,0,0,0,0,0,0,0,0,0,0,0,0,0,-3.6253,-3.6255,0,-3.6364,-3.6365,-3.6367,-3.6369,-3.6368,-3.6366,-3.6365,-3.648,-3.6485,-3.6489,0,0,0,0,0,0,0,0,0,0,0,0,0,-3.6046,-3.605,-3.6253,-3.6255,-3.6256,-3.6364,-3.6365,-3.6367,-3.6369,-3.6368,-3.6366,-3.6364,-3.6479,-3.6484,-3.6489,0,0,0,0,0,0,0,0,0,0,0,0,0,-3.6144,-3.6051,-3.6253,-3.627,-3.6273,-3.6364,-3.6366,-3.6367,-3.637,-3.6368,-3.6366,-3.6364,-3.6477,-3.6484,-3.649,-3.6572,0,0,-3.651,-3.6513,0,0,0,0,0,0,0,0,-3.6139,-3.6152,-3.6266,-3.6269,-3.6272,-3.6351,-3.6335,-3.6436,-3.637,-3.6333,-3.6365,-3.6363,-3.6439,-3.6449,-3.6474,-3.6577,-3.6582,-3.6511,-3.6515,-3.6517,-3.6519,0,0,0,0,0,0,0,-3.6132,-3.6147,-3.6297,-3.6268,-3.6272,-3.6273,-3.6285,-3.6354,-3.6396,-3.6336,-3.6336,-3.6349,-3.644,-3.6468,-3.6477,-3.6584,-3.651,-3.6516,-3.652,-3.6523,-3.6761,-3.6763,0,0,0,0,0,0,-3.6121,-3.6141,-3.6294,-3.63,-3.6199,-3.6278,-3.6292,-3.6328,-3.6396,-3.6404,-3.6351,-3.6349,-3.6458,-3.6469,-3.6481,-3.6581,-3.6517,-3.6524,-3.6527,-3.6758,-3.6761,-3.6764,0,0,0,0,0,0,-3.6117,-3.6135,-3.6289,-3.6221,-3.6241,-3.6284,-3.6325,-3.6331,-3.6358,-3.6407,-3.6415,-3.6371,-3.6456,-3.6472,-3.6549,-3.6585,-3.6526,-3.6532,-3.6755,-3.6759,-3.6762,-3.6781,0,0,0,0,0,0,-3.6111,-3.6133,-3.6164,-3.6222,-3.6244,-3.6355,-3.6327,-3.6335,-3.6369,-3.6368,-3.6428,-3.6436,-3.6456,-3.6539,-3.6556,-3.6593,-3.6538,-3.6752,-3.6757,-3.6761,-3.6778,-3.6785,-3.6792,0,0,0,0,0,-3.6103,-3.6165,-3.6166,-3.6184,-3.6284,-3.6357,-3.637,-3.6391,-3.6372,-3.6404,-3.6435,-3.6434,-3.6579,-3.6547,-3.6566,-3.6605,-3.675,-3.6756,-3.6761,-3.6775,-3.6784,-3.6791,0,0,0,0,0,0,-3.6111,-3.6173,-3.6174,-3.6256,-3.6301,-3.6357,-3.6398,-3.64,-3.6452,-3.6449,-3.6474,-3.6487,-3.6564,-3.6593,-3.6557,-3.6688,-3.6662,-3.6671,-3.6666,-3.6675,-3.6682,-3.6673,-3.6543,0,0,0,0,0,-3.6123,-3.6176,-3.6228,-3.6295,-3.6318,-3.6354,-3.6387,-3.6399,-3.6447,-3.6466,-3.6503,-3.655,-3.6606,-3.6643,-3.6697,-3.6783,-3.6796,-3.6819,-3.6826,-3.6831,-3.6839,-3.6886,-3.6897,-3.6781,-3.6781,-3.6781,0,0,-3.6146,-3.6187,-3.6219,-3.6298,-3.6334,-3.639,-3.637,-3.6429,-3.6471,-3.6475,-3.655,-3.658,-3.6634,-3.6716,-3.6754,-3.6742,-3.6874,-3.6838,-3.6842,-3.6847,-3.6893,-3.6903,-3.6913,-3.6785,-3.6784,-3.6784,0,0,-3.6218,-3.6254,-3.6314,-3.6351,-3.6406,-3.643,-3.6444,-3.65,-3.6519,-3.6595,-3.66,-3.665,-3.6746,-3.6785,-3.6817,-3.6904,-3.6904,-3.6921,-3.6957,-3.7002,-3.7012,-3.702,-3.705,-3.7061,-3.6929,-3.6929,-3.6929,0,-3.624,-3.6323,-3.6345,-3.6404,-3.6439,-3.6446,-3.6507,-3.6542,-3.6612,-3.6636,-3.6622,-3.6743,-3.678,-3.6871,-3.6892,-3.6919,-3.6936,-3.6914,-3.7008,-3.7017,-3.7025,-3.7054,-3.7066,-3.693,-3.693,-3.693,-3.693,0,-3.6348,-3.6406,-3.6448,-3.6515,-3.6554,-3.6615,-3.6646,-3.6684,-3.6694,-3.6719,-3.6797,-3.6842,-3.6905,-3.6928,-3.6938,-3.7021,-3.7012,-3.7003,-3.6977,-3.7037,-3.7065,-3.7076,-3.6933,-3.6932,-3.6932,-3.6931,0,0,-3.6426,-3.6505,-3.652,-3.655,-3.6612,-3.6657,-3.6718,-3.678,-3.6811,-3.6861,-3.6912,-3.6994,-3.6986,-3.7023,-3.7038,-3.7078,-3.7144,-3.7065,-3.7066,-3.7077,-3.7237,-3.7242,-3.7255,-3.7145,-3.7148,-3.7149,-3.7232,0,-3.6504,-3.6611,-3.6632,-3.6726,-3.6779,-3.6787,-3.684,-3.6884,-3.691,-3.696,-3.6989,-3.7046,-3.7032,-3.7054,-3.7095,-3.7127,-3.7176,-3.7122,-3.7194,-3.7196,-3.7178,-3.727,-3.7275,-3.7351,-3.7243,-3.7245,-3.7247,0,-3.6608,-3.6658,-3.6756,-3.6811,-3.6834,-3.6881,-3.694,-3.6987,-3.7038,-3.7054,-3.7095,-3.7106,-3.7171,-3.7143,-3.7232,-3.7195,-3.7226,-3.7246,-3.725,-3.7256,-3.7224,-3.7277,-3.7376,-3.7387,-3.7264,-3.7263,-3.7261,0,-3.6654,-3.6746,-3.6817,-3.6843,-3.6909,-3.6942,-3.6971,-3.7019,-3.7055,-3.7107,-3.713,-3.7189,-3.7221,-3.7267,-3.7294,-3.7271,-3.7381,-3.7355,-3.7396,-3.7396,-3.7418,-3.7416,-3.7521,-3.744,-3.744,-3.744,-3.7439,0,-3.6737,-3.6797,-3.6838,-3.6882,-3.6949,-3.6974,-3.7041,-3.707,-3.7113,-3.7163,-3.7174,-3.7221,-3.7254,-3.7305,-3.7327,-3.7398,-3.7412,-3.7427,-3.7432,-3.7426,-3.7424,-3.7445,-3.744,-3.7443,-3.7442,-3.7441,-3.7441,0,-3.6799,-3.683,-3.6907,-3.6963,-3.6979,-3.7026,-3.7074,-3.7117,-3.7143,-3.7206,-3.7222,-3.7264,-3.7326,-3.7357,-3.7434,-3.7449,-3.7528,-3.753,-3.751,-3.7512,-3.7551,-3.7546,-3.7673,-3.7691,-3.7598,-3.7599,-3.76,0,-3.685,-3.6896,-3.6956,-3.699,-3.7019,-3.7074,-3.711,-3.7137,-3.7175,-3.7236,-3.7272,-3.7334,-3.7384,-3.7482,-3.752,-3.7579,-3.7582,-3.7623,-3.7591,-3.7583,-3.7582,-3.7578,-3.7583,-3.7628,-3.7629,-3.7629,-3.763,0,-3.6936,-3.6949,-3.7,-3.7057,-3.71,-3.7147,-3.7193,-3.722,-3.7255,-3.7297,-3.7359,-3.7398,-3.7477,-3.7538,-3.76,-3.7631,-3.7637,-3.764,-3.7652,-3.7645,-3.7632,-3.7639,-3.7524,-3.7637,-3.7636,-3.7635,-3.7635,-3.7635,-3.6993,-3.7034,-3.7083,-3.7141,-3.7178,-3.7221,-3.7263,-3.7295,-3.7347,-3.7412,-3.7426,-3.7492,-3.7542,-3.7626,-3.7659,-3.7711,-3.7703,-3.7721,-3.7726,-3.7729,-3.7731,-3.7624,-3.7723,-3.7723,-3.7723,-3.7723,-3.7723,0,-3.708,-3.7111,-3.7164,-3.7227,-3.7272,-3.7273,-3.7324,-3.7362,-3.742,-3.7466,-3.7515,-3.7587,-3.7647,-3.769,-3.7751,-3.7785,-3.7789,-3.78,-3.7797,-3.7804,-3.7735,-3.7718,-3.7795,-3.7795,-3.7795,-3.7795,-3.7795,-3.7795,-3.713,-3.7199,-3.7218,-3.7306,-3.7338,-3.7402,-3.7431,-3.747,-3.7507,-3.7587,-3.7636,-3.7663,-3.7708,-3.7773,-3.7828,-3.7839,-3.7861,-3.7871,-3.7882,-3.7817,-3.7809,-3.7802,-3.7785,-3.7876,-3.7876,-3.7947,-3.7947,-3.7948]},{"header":{"parameterUnit":"m.s-1","parameterCategory":1,"la1":30.2991,"la2":30.254,"lo1":-89.0895,"lo2":-89.0444,"dy":0.0017,"dx":0.0017,"nx":28,"ny":28,"refTime":"2024-04-01T21:00:00:Z","depth":0,"parameterNumber":3,"parameterNumberName":"V-component_of_WINDS"},"data":[0,0,0,0,0,0,0,0,0,0,0,0,0,0,0,0,0,0,0,0,0,0,0,0,0,0,0,0,0,0,0,0,0,0,0,0,0,0,0,0,0,0,0,0,0,0,0,0,0,0,0,0,0,0,0,0,0,0,3.3334,3.3335,0,3.3381,3.3381,3.3382,3.3394,3.3394,3.3394,3.3394,3.3438,3.344,3.3441,0,0,0,0,0,0,0,0,0,0,0,0,0,3.3254,3.3255,3.3334,3.3335,3.3335,3.3381,3.3381,3.3382,3.3394,3.3394,3.3394,3.3393,3.3438,3.344,3.3441,0,0,0,0,0,0,0,0,0,0,0,0,0,3.3293,3.3256,3.3334,3.3347,3.3349,3.3381,3.3381,3.3382,3.3394,3.3394,3.3394,3.3393,3.3437,3.3439,3.3441,3.3463,0,0,3.3448,3.3449,0,0,0,0,0,0,0,0,3.3291,3.3296,3.3345,3.3346,3.3348,3.3381,3.3369,3.3409,3.3395,3.3377,3.3394,3.3393,3.342,3.3423,3.3433,3.3465,3.3467,3.3448,3.345,3.3451,3.3451,0,0,0,0,0,0,0,3.3288,3.3294,3.3353,3.3345,3.3348,3.335,3.3355,3.3377,3.34,3.3379,3.338,3.3385,3.342,3.343,3.3434,3.3467,3.3448,3.345,3.3451,3.3452,3.3521,3.3521,0,0,0,0,0,0,3.3284,3.3292,3.3351,3.3354,3.3318,3.3352,3.3358,3.3371,3.34,3.3404,3.3385,3.3385,3.3427,3.3431,3.3435,3.3463,3.345,3.3453,3.3454,3.352,3.3521,3.3521,0,0,0,0,0,0,3.3282,3.3289,3.3349,3.3323,3.3331,3.3354,3.3369,3.3372,3.3382,3.3405,3.3409,3.3392,3.3427,3.3432,3.3456,3.3465,3.3453,3.3455,3.352,3.352,3.3521,3.3519,0,0,0,0,0,0,3.328,3.3288,3.3297,3.3323,3.3333,3.337,3.3369,3.3373,3.3386,3.3387,3.3412,3.3416,3.3427,3.3453,3.3459,3.3468,3.3457,3.3519,3.352,3.3521,3.3518,3.3519,3.352,0,0,0,0,0,3.3277,3.3293,3.3297,3.3304,3.3344,3.3371,3.3376,3.3389,3.3387,3.3396,3.3411,3.3415,3.3463,3.3455,3.3462,3.3472,3.3518,3.352,3.3521,3.3518,3.3519,3.352,0,0,0,0,0,0,3.3266,3.3297,3.3302,3.3328,3.3347,3.3373,3.3384,3.339,3.3409,3.3409,3.3424,3.343,3.3453,3.3464,3.3455,3.3494,3.3491,3.3493,3.3486,3.3488,3.3489,3.3486,3.3459,0,0,0,0,0,3.3267,3.3287,3.3312,3.3333,3.3342,3.3362,3.3373,3.3383,3.3402,3.341,3.3426,3.3444,3.3464,3.3476,3.3495,3.352,3.3526,3.353,3.3531,3.3531,3.3534,3.3548,3.3551,3.3525,3.3525,3.3525,0,0,3.3268,3.3288,3.3299,3.3331,3.3347,3.3367,3.3368,3.3388,3.3403,3.3413,3.3437,3.345,3.3471,3.3496,3.3507,3.3506,3.3542,3.3533,3.3533,3.3535,3.355,3.3552,3.3554,3.3526,3.3526,3.3526,0,0,3.3282,3.3298,3.3318,3.3334,3.3358,3.3371,3.3376,3.3401,3.341,3.3435,3.3443,3.346,3.3493,3.3509,3.3521,3.3541,3.3546,3.3546,3.3552,3.3567,3.3569,3.3571,3.3579,3.3581,3.3548,3.3548,3.3548,0,3.3281,3.3311,3.3327,3.3348,3.3361,3.3372,3.3392,3.3407,3.3435,3.3444,3.3443,3.3485,3.35,3.3529,3.3534,3.3543,3.3549,3.3544,3.3567,3.3569,3.3571,3.3579,3.3582,3.3548,3.3548,3.3548,3.3548,0,3.3309,3.333,3.3343,3.3372,3.3388,3.3407,3.3425,3.3439,3.3447,3.346,3.3485,3.3504,3.3527,3.3535,3.3542,3.3565,3.3564,3.3564,3.3561,3.3574,3.3581,3.3584,3.3548,3.3548,3.3548,3.3548,0,0,3.3317,3.3355,3.336,3.3374,3.3402,3.3418,3.3438,3.3463,3.3474,3.3494,3.3512,3.354,3.3541,3.3555,3.3564,3.3576,3.3592,3.3575,3.3576,3.3579,3.362,3.362,3.3623,3.3595,3.3596,3.3597,3.3619,0,3.3334,3.3373,3.3388,3.3419,3.3439,3.345,3.3468,3.3487,3.35,3.3518,3.3532,3.3552,3.3552,3.356,3.3573,3.3588,3.3601,3.3586,3.3612,3.3613,3.3608,3.3627,3.3627,3.3647,3.3622,3.3622,3.3623,0,3.336,3.3382,3.3415,3.3442,3.3451,3.3467,3.3491,3.3509,3.353,3.3539,3.3555,3.3563,3.3585,3.358,3.361,3.36,3.3611,3.362,3.3621,3.3625,3.3619,3.3632,3.3653,3.3657,3.3627,3.3627,3.3627,0,3.3364,3.3401,3.3426,3.3438,3.3469,3.348,3.3494,3.3515,3.3529,3.355,3.3559,3.3581,3.3593,3.361,3.3625,3.3619,3.3654,3.365,3.3662,3.3661,3.3669,3.3668,3.3693,3.3675,3.3674,3.3674,3.3674,0,3.3382,3.3403,3.3429,3.3444,3.3467,3.3484,3.3506,3.352,3.3539,3.3557,3.3567,3.3584,3.3602,3.362,3.3631,3.3656,3.3661,3.3668,3.3671,3.3668,3.3667,3.3676,3.3675,3.3675,3.3675,3.3675,3.3675,0,3.3391,3.3409,3.3437,3.3465,3.3473,3.3489,3.3512,3.3528,3.3541,3.3564,3.3571,3.3592,3.3614,3.363,3.3659,3.3667,3.3693,3.3695,3.3686,3.3688,3.3699,3.3698,3.3731,3.3737,3.3714,3.3714,3.3714,0,3.3402,3.3418,3.3448,3.3462,3.3476,3.3497,3.3512,3.3529,3.3544,3.357,3.3583,3.3607,3.3627,3.3663,3.368,3.3702,3.3706,3.3716,3.3709,3.3706,3.3707,3.3707,3.3709,3.3717,3.3717,3.3717,3.3717,0,3.342,3.3429,3.345,3.3475,3.3493,3.3514,3.3534,3.3544,3.3564,3.358,3.3605,3.362,3.3651,3.3675,3.3699,3.3712,3.3718,3.3719,3.3724,3.3721,3.3716,3.372,3.369,3.3719,3.3719,3.3719,3.3718,3.3718,3.3431,3.3446,3.3471,3.3495,3.3512,3.3531,3.3547,3.3564,3.3585,3.3612,3.362,3.3645,3.3667,3.3701,3.3714,3.3734,3.3733,3.3739,3.374,3.3742,3.3742,3.3712,3.3738,3.3738,3.3738,3.3738,3.3738,0,3.3451,3.3467,3.3489,3.3518,3.3537,3.3542,3.3565,3.3581,3.3603,3.3624,3.3644,3.3672,3.3695,3.3715,3.3739,3.3751,3.3755,3.3757,3.3757,3.376,3.3741,3.3736,3.3754,3.3754,3.3754,3.3754,3.3754,3.3754,3.3463,3.349,3.3502,3.3538,3.3553,3.358,3.3593,3.361,3.3627,3.3658,3.3678,3.3691,3.3711,3.3737,3.3759,3.3764,3.3773,3.3775,3.378,3.3763,3.3761,3.3759,3.3754,3.3776,3.3776,3.3798,3.3798,3.3798]}]]